[[{"header":{"parameterUnit":"m.s-1","parameterCategory":1,"la1":30.2991,"la2":30.254,"lo1":-89.0895,"lo2":-89.0444,"dy":0.0017,"dx":0.0017,"nx":28,"ny":28,"refTime":"2025-01-24T09:00:00:Z","depth":0,"parameterNumber":2,"parameterNumberName":"U-component_of_WINDS"},"data":[0,0,0,0,0,0,0,0,0,0,0,0,0,0,0,0,0,0,0,0,0,0,0,0,0,0,0,0,0,0,0,0,0,0,0,0,0,0,0,0,0,0,0,0,0,0,0,0,0,0,0,0,0,0,0,0,0,0,0.6248,0.6248,0,0.6233,0.6233,0.6232,0.6211,0.6211,0.621,0.621,0.6193,0.6193,0.6193,0,0,0,0,0,0,0,0,0,0,0,0,0,0.6258,0.6258,0.6248,0.6248,0.6247,0.6233,0.6233,0.6232,0.6211,0.6211,0.621,0.621,0.6193,0.6193,0.6193,0,0,0,0,0,0,0,0,0,0,0,0,0,0.6249,0.6258,0.6248,0.6235,0.6234,0.6233,0.6233,0.6232,0.6211,0.6211,0.621,0.6209,0.6194,0.6193,0.6193,0.6203,0,0,0.6193,0.6193,0,0,0,0,0,0,0,0,0.625,0.6249,0.6237,0.6236,0.6234,0.6223,0.623,0.6223,0.6211,0.622,0.621,0.6209,0.6204,0.6203,0.6201,0.6203,0.6202,0.6193,0.6193,0.6193,0.6193,0,0,0,0,0,0,0,0.625,0.6249,0.6242,0.6237,0.6235,0.623,0.6228,0.6229,0.6215,0.6219,0.6217,0.6216,0.6203,0.6201,0.6201,0.6202,0.6193,0.6193,0.6193,0.6193,0.6213,0.6213,0,0,0,0,0,0,0.6253,0.625,0.6242,0.6241,0.6241,0.623,0.6228,0.6227,0.6215,0.6212,0.6216,0.6215,0.6202,0.6201,0.62,0.6212,0.6193,0.6193,0.6192,0.6212,0.6213,0.6214,0,0,0,0,0,0,0.6253,0.6252,0.6243,0.6245,0.6244,0.6231,0.623,0.6227,0.6226,0.6213,0.621,0.6217,0.6201,0.62,0.6203,0.6211,0.6192,0.6192,0.6211,0.6212,0.6213,0.6236,0,0,0,0,0,0,0.6253,0.6252,0.6256,0.6245,0.6244,0.6246,0.623,0.6227,0.6226,0.6224,0.6213,0.6211,0.6201,0.6204,0.6203,0.6211,0.6192,0.6211,0.6212,0.6213,0.6235,0.6238,0.6241,0,0,0,0,0,0.6254,0.6262,0.6256,0.6256,0.6248,0.6247,0.6246,0.6234,0.6226,0.623,0.6222,0.6211,0.6211,0.6204,0.6203,0.6211,0.621,0.6212,0.6213,0.6233,0.6237,0.624,0,0,0,0,0,0,0.6273,0.6261,0.6254,0.6259,0.6255,0.6243,0.6247,0.6239,0.6235,0.6234,0.6219,0.6217,0.6222,0.6217,0.621,0.6221,0.6209,0.621,0.6225,0.6228,0.6231,0.6232,0.6192,0,0,0,0,0,0.6279,0.6279,0.6268,0.6274,0.6272,0.626,0.6259,0.6251,0.6245,0.6243,0.6235,0.623,0.6229,0.6228,0.6226,0.6234,0.6232,0.6239,0.6242,0.6244,0.6246,0.6251,0.6255,0.6218,0.6218,0.6218,0,0,0.6289,0.6282,0.6283,0.6278,0.6273,0.6274,0.6258,0.626,0.6261,0.6243,0.6246,0.624,0.6233,0.624,0.6242,0.6235,0.6256,0.6246,0.6248,0.6248,0.6253,0.6256,0.6259,0.6219,0.6219,0.6219,0,0,0.6308,0.6303,0.6308,0.6304,0.6298,0.629,0.6291,0.6282,0.6278,0.6281,0.6268,0.6269,0.6266,0.6263,0.626,0.6281,0.6271,0.628,0.6295,0.6301,0.6304,0.6306,0.6315,0.6318,0.6282,0.6282,0.6282,0,0.6322,0.6323,0.6312,0.6314,0.6313,0.6298,0.6304,0.63,0.6293,0.6292,0.6285,0.6283,0.6277,0.6283,0.6289,0.6287,0.6288,0.6281,0.6304,0.6307,0.6309,0.6317,0.632,0.6283,0.6283,0.6283,0.6283,0,0.6341,0.6342,0.6347,0.6342,0.6341,0.6345,0.6334,0.6334,0.6327,0.632,0.6324,0.6317,0.6314,0.6315,0.6307,0.632,0.6316,0.6307,0.6294,0.6314,0.6321,0.6324,0.6285,0.6284,0.6284,0.6284,0,0,0.6371,0.6361,0.6363,0.6361,0.6354,0.6354,0.6358,0.6356,0.6357,0.6353,0.6357,0.6356,0.6348,0.6346,0.6337,0.6342,0.636,0.6332,0.6332,0.6338,0.6376,0.6383,0.6387,0.6354,0.6354,0.6355,0.6377,0,0.639,0.6396,0.6387,0.6395,0.6397,0.6384,0.6387,0.6383,0.6378,0.6378,0.6372,0.6372,0.6361,0.636,0.6364,0.6357,0.6367,0.6355,0.6357,0.6357,0.636,0.639,0.6398,0.6419,0.6379,0.638,0.638,0,0.6412,0.641,0.6419,0.6413,0.6413,0.6417,0.6415,0.6416,0.6411,0.6407,0.6405,0.6396,0.64,0.6388,0.6394,0.6386,0.6386,0.6383,0.6384,0.6383,0.637,0.6392,0.6425,0.6429,0.6384,0.6384,0.6383,0,0.6434,0.6434,0.644,0.6439,0.6431,0.6434,0.6431,0.6427,0.6427,0.6425,0.6425,0.6424,0.6423,0.6423,0.6413,0.6405,0.6421,0.6407,0.6418,0.6418,0.6422,0.6422,0.6456,0.6421,0.6421,0.6421,0.6421,0,0.6456,0.6463,0.6451,0.6454,0.6461,0.6451,0.6458,0.6454,0.645,0.6453,0.6441,0.6444,0.6432,0.6434,0.6426,0.6433,0.6433,0.643,0.6428,0.6431,0.6432,0.6431,0.643,0.6422,0.6422,0.6422,0.6421,0,0.6483,0.6475,0.6481,0.6474,0.6472,0.6478,0.6472,0.6475,0.6469,0.6473,0.6474,0.6465,0.6466,0.6457,0.6457,0.6452,0.6463,0.6458,0.6465,0.6463,0.6475,0.6474,0.6511,0.6516,0.6477,0.6477,0.6478,0,0.6497,0.6502,0.6496,0.6498,0.6496,0.6498,0.6498,0.6488,0.6489,0.6486,0.649,0.6491,0.6491,0.6495,0.6488,0.6488,0.6484,0.6497,0.6484,0.6488,0.6485,0.6486,0.6487,0.65,0.65,0.6501,0.6501,0,0.6525,0.6521,0.6522,0.6523,0.6524,0.6523,0.6522,0.6524,0.6513,0.6515,0.6517,0.6517,0.6518,0.652,0.6519,0.6516,0.6507,0.6505,0.6508,0.6511,0.6515,0.6514,0.6473,0.6504,0.6504,0.6504,0.6504,0.6503,0.6546,0.6551,0.6548,0.655,0.6548,0.6548,0.6551,0.6546,0.6548,0.6548,0.6542,0.6546,0.6543,0.6541,0.654,0.6543,0.6537,0.654,0.6541,0.6542,0.6545,0.6515,0.6542,0.6542,0.6542,0.6542,0.6542,0,0.6574,0.6572,0.6574,0.6573,0.6575,0.6567,0.6566,0.6568,0.6572,0.657,0.6571,0.6574,0.6576,0.6571,0.6572,0.6575,0.6572,0.6576,0.6576,0.6576,0.655,0.6548,0.6579,0.6579,0.6579,0.6579,0.6579,0.6579,0.6588,0.6596,0.6592,0.6599,0.6597,0.6601,0.6601,0.6601,0.6599,0.6604,0.6606,0.6602,0.6599,0.6601,0.6602,0.6601,0.6602,0.6608,0.6605,0.6581,0.6577,0.6574,0.6572,0.6608,0.6609,0.6631,0.6632,0.6632]},{"header":{"parameterUnit":"m.s-1","parameterCategory":1,"la1":30.2991,"la2":30.254,"lo1":-89.0895,"lo2":-89.0444,"dy":0.0017,"dx":0.0017,"nx":28,"ny":28,"refTime":"2025-01-24T09:00:00:Z","depth":0,"parameterNumber":3,"parameterNumberName":"V-component_of_WINDS"},"data":[0,0,0,0,0,0,0,0,0,0,0,0,0,0,0,0,0,0,0,0,0,0,0,0,0,0,0,0,0,0,0,0,0,0,0,0,0,0,0,0,0,0,0,0,0,0,0,0,0,0,0,0,0,0,0,0,0,0,-1.7604,-1.7605,0,-1.7628,-1.7629,-1.7629,-1.7597,-1.7596,-1.7595,-1.7594,-1.7618,-1.762,-1.7622,0,0,0,0,0,0,0,0,0,0,0,0,0,-1.753,-1.7531,-1.7604,-1.7605,-1.7605,-1.7628,-1.7629,-1.7629,-1.7597,-1.7596,-1.7594,-1.7593,-1.7618,-1.762,-1.7622,0,0,0,0,0,0,0,0,0,0,0,0,0,-1.7559,-1.7532,-1.7604,-1.7592,-1.7591,-1.7628,-1.7629,-1.7629,-1.7597,-1.7596,-1.7594,-1.7592,-1.7617,-1.762,-1.7622,-1.7673,0,0,-1.763,-1.7631,0,0,0,0,0,0,0,0,-1.7557,-1.7562,-1.7593,-1.7593,-1.7592,-1.7608,-1.7611,-1.7644,-1.7598,-1.7595,-1.7594,-1.7592,-1.7616,-1.7619,-1.7627,-1.7674,-1.7675,-1.763,-1.7632,-1.7633,-1.7634,0,0,0,0,0,0,0,-1.7555,-1.756,-1.7614,-1.7594,-1.7593,-1.7585,-1.7587,-1.7617,-1.7615,-1.7595,-1.7593,-1.7596,-1.7615,-1.7625,-1.7627,-1.7675,-1.763,-1.7632,-1.7634,-1.7635,-1.7763,-1.7765,0,0,0,0,0,0,-1.7555,-1.7559,-1.7613,-1.7614,-1.757,-1.7587,-1.759,-1.7604,-1.7615,-1.7614,-1.7598,-1.7595,-1.7621,-1.7624,-1.7628,-1.7687,-1.7633,-1.7635,-1.7637,-1.7761,-1.7763,-1.7765,0,0,0,0,0,0,-1.7553,-1.756,-1.7612,-1.7586,-1.7592,-1.7591,-1.7607,-1.7606,-1.7615,-1.7616,-1.7616,-1.7607,-1.762,-1.7624,-1.7661,-1.7687,-1.7637,-1.7639,-1.7759,-1.7762,-1.7764,-1.7805,0,0,0,0,0,0,-1.7551,-1.756,-1.7579,-1.7587,-1.7594,-1.7645,-1.7609,-1.7608,-1.762,-1.7616,-1.7626,-1.7625,-1.7619,-1.7658,-1.7664,-1.769,-1.7641,-1.7756,-1.776,-1.7763,-1.7801,-1.7809,-1.7815,0,0,0,0,0,-1.7549,-1.759,-1.758,-1.7587,-1.7618,-1.7647,-1.7651,-1.7642,-1.7622,-1.7641,-1.7642,-1.7625,-1.7683,-1.7662,-1.7669,-1.7695,-1.7755,-1.7759,-1.7763,-1.7798,-1.7807,-1.7815,0,0,0,0,0,0,-1.7586,-1.7591,-1.758,-1.7625,-1.7636,-1.7641,-1.7666,-1.7652,-1.7669,-1.7665,-1.7654,-1.7656,-1.7695,-1.7699,-1.7675,-1.7744,-1.7716,-1.7721,-1.774,-1.7749,-1.7755,-1.7753,-1.7643,0,0,0,0,0,-1.7599,-1.7622,-1.7626,-1.7665,-1.7671,-1.7667,-1.768,-1.7672,-1.7683,-1.7687,-1.769,-1.7701,-1.7722,-1.7736,-1.7755,-1.7802,-1.7803,-1.7824,-1.783,-1.7836,-1.7841,-1.7864,-1.7873,-1.7779,-1.7779,-1.7779,0,0,-1.7627,-1.7633,-1.7648,-1.7672,-1.768,-1.7703,-1.7671,-1.7698,-1.7715,-1.7691,-1.7726,-1.7729,-1.774,-1.7782,-1.78,-1.7786,-1.7867,-1.7841,-1.7846,-1.7848,-1.7869,-1.7878,-1.7886,-1.7782,-1.7781,-1.7781,0,0,-1.769,-1.7697,-1.773,-1.7737,-1.7749,-1.7746,-1.7754,-1.7761,-1.7762,-1.7797,-1.7778,-1.7799,-1.7835,-1.7843,-1.7852,-1.7916,-1.7901,-1.7923,-1.7959,-1.7982,-1.7989,-1.7996,-1.8017,-1.8025,-1.7928,-1.7928,-1.7928,0,-1.7723,-1.7758,-1.7748,-1.7776,-1.7786,-1.7765,-1.7798,-1.7806,-1.7823,-1.783,-1.7814,-1.7858,-1.7864,-1.7907,-1.7922,-1.7931,-1.7939,-1.7921,-1.7989,-1.7995,-1.8001,-1.8022,-1.803,-1.793,-1.793,-1.793,-1.793,0,-1.7798,-1.7822,-1.7847,-1.7863,-1.7877,-1.7907,-1.7901,-1.7916,-1.7907,-1.7906,-1.794,-1.7947,-1.7966,-1.7976,-1.7968,-1.8017,-1.8008,-1.7991,-1.7962,-1.8013,-1.8032,-1.804,-1.7934,-1.7933,-1.7932,-1.7932,0,0,-1.7885,-1.7894,-1.7903,-1.791,-1.792,-1.7939,-1.7967,-1.7986,-1.7998,-1.801,-1.8033,-1.8064,-1.8047,-1.8058,-1.805,-1.8071,-1.8119,-1.8051,-1.8051,-1.8062,-1.8172,-1.8184,-1.8193,-1.811,-1.8111,-1.8112,-1.817,0,-1.7946,-1.7995,-1.7986,-1.8034,-1.8056,-1.8035,-1.806,-1.8069,-1.8068,-1.8086,-1.8085,-1.8106,-1.8084,-1.809,-1.8109,-1.8109,-1.8141,-1.8105,-1.813,-1.8131,-1.8126,-1.8203,-1.8216,-1.8271,-1.8178,-1.8179,-1.818,0,-1.8025,-1.8039,-1.8088,-1.8093,-1.8102,-1.8125,-1.814,-1.8158,-1.8167,-1.8165,-1.8176,-1.8164,-1.8192,-1.8163,-1.82,-1.8176,-1.8186,-1.8187,-1.8189,-1.819,-1.8158,-1.8205,-1.8288,-1.8296,-1.8192,-1.8191,-1.819,0,-1.8081,-1.8113,-1.8146,-1.8152,-1.816,-1.8176,-1.8179,-1.8187,-1.8198,-1.8211,-1.8218,-1.8235,-1.8244,-1.8257,-1.825,-1.823,-1.8288,-1.8259,-1.8286,-1.8287,-1.8299,-1.8298,-1.8383,-1.8307,-1.8307,-1.8307,-1.8307,0,-1.815,-1.8181,-1.8171,-1.8192,-1.8225,-1.8214,-1.8248,-1.8249,-1.8256,-1.8275,-1.8259,-1.8278,-1.8268,-1.8286,-1.8281,-1.8311,-1.8316,-1.8315,-1.8313,-1.8315,-1.8315,-1.8321,-1.8316,-1.8309,-1.8309,-1.8308,-1.8308,0,-1.8219,-1.8214,-1.8248,-1.8252,-1.8254,-1.8278,-1.8281,-1.8299,-1.8297,-1.8322,-1.8328,-1.8324,-1.8344,-1.8339,-1.8361,-1.8357,-1.8396,-1.839,-1.8393,-1.8391,-1.8417,-1.8414,-1.8508,-1.8519,-1.8437,-1.8438,-1.8439,0,-1.8262,-1.8285,-1.8291,-1.8303,-1.8308,-1.8327,-1.8338,-1.8329,-1.834,-1.8352,-1.8369,-1.8387,-1.8401,-1.8434,-1.8434,-1.845,-1.8444,-1.8475,-1.8446,-1.8447,-1.8442,-1.844,-1.8442,-1.8481,-1.8482,-1.8483,-1.8483,0,-1.834,-1.8336,-1.8352,-1.8367,-1.8381,-1.8392,-1.8402,-1.8413,-1.8404,-1.8418,-1.8438,-1.8449,-1.8471,-1.8489,-1.8504,-1.8507,-1.8494,-1.8493,-1.8499,-1.8502,-1.8502,-1.8501,-1.8407,-1.849,-1.849,-1.8489,-1.8489,-1.8488,-1.8397,-1.8415,-1.8422,-1.844,-1.8446,-1.8456,-1.8473,-1.8472,-1.8489,-1.8505,-1.8499,-1.8521,-1.8529,-1.8547,-1.8552,-1.8569,-1.8557,-1.8568,-1.857,-1.8572,-1.8575,-1.85,-1.8572,-1.8572,-1.8572,-1.8572,-1.8572,0,-1.8472,-1.8475,-1.8492,-1.8506,-1.852,-1.8505,-1.8515,-1.8528,-1.8548,-1.8556,-1.857,-1.8592,-1.8609,-1.861,-1.8625,-1.8639,-1.8633,-1.8643,-1.8642,-1.8642,-1.8586,-1.8577,-1.8648,-1.8648,-1.8648,-1.8648,-1.8648,-1.8648,-1.8513,-1.8543,-1.854,-1.8573,-1.8575,-1.8597,-1.8604,-1.8612,-1.8618,-1.8643,-1.8657,-1.8657,-1.8661,-1.8677,-1.8692,-1.8692,-1.8698,-1.871,-1.8707,-1.8654,-1.8647,-1.8639,-1.8631,-1.8712,-1.8712,-1.8762,-1.8763,-1.8763]}]]